Вернуться в каталог

CONNECTA IOT-16

АктивенСвязьSSO
NORAD 67390·PAYLOAD·🇹🇷 Turkey

Запущен Jan 11, 2026 с Vandenberg Space Force Base

Loading…

Ближайшие Пролёты (ближайшие 24 часа)

TLE

СвежийSource: Space-Track

Эпоха: Sep 14, 2026, 10:13 UTC

1 67390U 26004AD  26257.42597365  .00006018  00000-0  29473-3 0  9993
2 67390  97.4644 255.1530 0005043  54.1291 306.0410 15.18525948 37288

Отслеживайте CONNECTA IOT-16 в реальном времени с AllMySat

Download on the App Store